Regional Weather Roundup
Issued by NWS Goodland, KS

Home | Current Version | Previous Version | Graphics & Text | Print | Product List | Glossary On
Versions: 1 2 3 4 5 6 7 8 9 10 11 12 13 14 15 16 17 18 19 20 21 22 23 24 25 26 27 28 29 30 31 32 33 34 35 36 37 38 39 40 41 42 43 44 45 46 47 48 49 50
000
ASUS43 KGLD 070708
RWRGLD

GOODLAND FORECAST AREA HOURLY WEATHER ROUNDUP
NATIONAL WEATHER SERVICE GOODLAND KS
1200 AM MST WED DEC 07 2016

...OFFICIAL OBSERVATIONS...

CITY           SKY/WX    TMP DP  RH WIND       PRES   REMARKS
GOODLAND KS    CLOUDY    24   2  38 SE6       29.97R
HILL CITY KS   CLOUDY    22  14  71 CALM      30.08F
IMPERIAL NEB   CLOUDY    20  17  88 NE7       30.02F
MCCOOK NEB     CLOUDY    23   7  50 E10       30.08F WCI  12
AKRON CO       LGT SNOW  18  15  88 E9        29.92F FOG
BURLINGTON CO  CLOUDY    24   0  35 E10       29.92F WCI  14
LIMON CO       CLOUDY    16  11  80 NE12      29.85S WCI   3
$$

...UNOFFICIAL OBSERVATIONS...

CITY           SKY/WX    TMP DP  RH WIND       PRES   REMARKS
COLBY KS       CLOUDY    27   7  43 NE10      30.01F WCI  17
LENORA KS        N/A     22  32 100 MISG        N/A
NORTON KS      MOCLDY    21   9  58 NE3       30.08F
SHARON SPRINGS   N/A     25   6  44 CALM        N/A
TRIBUNE KS     CLOUDY    23   7  50 E7        29.97
TRENTON NEB      N/A     23  32 100 E8          N/A
KIT CARSON CO    N/A     21   2  44 MISG        N/A
YUMA CO        LGT SNOW  19  18  93 NE8       29.97R
$$




USA.gov is the U.S. government's official web portal to all federal, state and local government web resources and services.